Lid_Strength_Index
12 13 13 13 9 8 7 5 6 6 5 5 6 4 4 2 1 0 1 0 -0 -1 -1 -1 -1 -1 -1 -1 -1 -1 -1 -1
13 13 11 9 8 7 7 7 5 5 6 4 2 3 2 1 0 1 1 0 -0 -1 -1 -1 -1 -1 -1 -1 -1 -1 -1 -1
14 12 9 7 7 7 7 7 7 6 6 5 3 2 1 1 1 1 1 0 -0 -1 -1 -1 -1 -1 -1 -1 -1 -1 -1 -1
14 12 9 7 7 7 8 8 6 6 6 6 3 2 2 1 1 0 1 0 0 -1 -1 -1 -1 -1 -1 -1 -1 -1 -1 -1
12 11 9 7 8 8 8 8 8 7 8 5 4 2 2 1 1 1 0 0 0 0 -0 -1 -1 -1 -1 -1 -1 -1 -1 -1
10 10 10 6 6 7 8 7 5 6 8 7 4 2 2 2 3 1 1 1 1 0 0 0 -0 -1 -1 -1 -1 -1 -1 -1
10 9 8 6 7 6 5 6 6 6 5 3 2 3 4 3 3 2 1 1 1 0 0 0 0 -0 -1 -1 -1 -1 -1 -1
7 7 7 6 6 6 6 7 6 6 3 3 2 3 4 4 4 3 2 2 1 1 1 0 -0 0 0 -0 0 -0 -0 0
7 6 5 6 6 5 6 8 6 7 6 3 3 3 3 4 4 3 2 2 1 1 1 0 0 0 0 0 0 -0 0 0
7 6 6 6 5 6 5 6 4 4 5 5 4 5 4 3 4 3 2 2 1 1 1 1 0 0 0 0 0 0 -0 0
8 8 7 6 6 6 6 4 3 3 3 5 5 4 4 4 3 3 2 2 2 1 1 1 1 0 0 0 0 0 1 0
9 10 9 9 8 6 6 4 4 4 4 4 4 3 4 4 4 3 2 3 2 3 1 1 1 1 1 0 0 1 1 1
9 9 9 8 10 9 6 5 5 4 4 4 4 5 4 4 3 3 3 2 3 2 1 1 1 1 1 0 0 1 1 0
11 8 7 8 12 8 7 6 6 5 4 4 4 5 4 3 3 2 2 3 1 1 1 1 1 1 1 1 1 1 1 0
12 9 8 9 10 7 6 6 6 6 5 4 4 4 4 3 3 2 3 2 3 1 1 1 1 1 1 1 1 1 0 1
13 10 10 10 10 9 7 6 6 5 5 5 4 4 3 3 3 2 2 2 2 3 1 1 1 1 2 3 2 2 1 1
11 9 10 11 11 10 8 8 8 6 6 5 5 4 3 3 2 3 2 2 2 2 2 3 2 3 3 3 3 2 1 1
11 9 10 11 11 10 9 9 8 8 6 5 5 4 4 4 3 3 3 2 2 2 2 2 2 2 2 2 2 1 1 1
12 10 9 11 12 11 9 9 8 7 7 5 5 4 4 4 4 3 3 3 2 2 2 2 2 2 2 2 2 2 2 2
10 12 15 11 17 13 11 10 9 8 7 6 5 4 4 4 4 4 3 2 2 2 2 2 1 2 3 3 4 3 2 1